Погода в Горицах

Россия / Тверская область     56°51′45″N   31°52′21″E
темп.,
°C
ветер,
м/с
пор.,
м/с
влажн.,
%
обл.,
%
осадки,
мм/ч
давл.,
гПа
погр.,
м
10 мая, пн
пн1000:00+3ю11709 0.0 102410
03:00+2ю22775 0.0 102519
06:00+2ю25765 0.0 1026112
09:00+10ю4851100 0.0 1027545
12:00+14ююз564349 0.0 10261160
15:00+16ююз454491 0.0 10261284
18:00+15ююз3455100 0.0 10251011
21:00+9ю358040 0.0 102786
11 мая, вт
вт1100:00+7ю23837 0.0 102850
03:00+6ююв25865 0.0 102973
06:00+6ююв24825 0.0 102979
09:00+13ююв24545 0.0 1029459
12:00+17юв34415 0.0 10271025
15:00+20вюв35373 0.0 10261371
18:00+19вюв35445 0.0 10261104
21:00+11вюв3107138 0.0 1026180
12 мая, ср
ср1200:00+9вюв311764 0.0 1026216
03:00+8вюв37885 0.0 1026133
06:00+9вюв27932 0.0 1026155
09:00+15юв357635 0.0 1026581
12:00+18вюв356595 0.0 10241235
15:00+19всв476188 0.1 10211204
18:00+19всв51067100 0.8 10181464
21:00+14всв61489100 2.1 1017890
13 мая, чт
чт1300:00+12вюв7139072 1.9 10161039
03:00+8юв51187100 1.9 10181015
06:00+6вюв4129330 0.0 1018512
09:00+8вюв5128899 0.1 1017777
12:00+10вюв5108983 1.1 1017940
15:00+13ююв596812 1.9 10161513
18:00+14ююв4861100 0.1 10151496
21:00+9юв278578 0.1 1017158
14 мая, пт
пт1400:00+7юв389483 0.0 1017160
03:00+6вюв3796100 0.0 1017144
06:00+8вюв31189100 0.0 1016262
09:00+12вюв41179100 0.0 1015409
12:00+17вюв5106814 0.1 10131101
15:00+15юв4108361 1.6 1011457
18:00+17юв51284100 3.5 1008744
21:00+13ююв249845 8.0 100873